Temperature
18 18 18 18 18 18 18 18 18 18 18 18 18 18 18 18 18 18 18 18 17 17 17 17 17 17 17 17 17 17 17 16 16 16 16 16 16 16 16 16 16 16 16
18 18 18 18 18 18 18 18 18 18 18 18 18 18 18 18 18 17 18 17 17 17 17 17 17 17 17 17 17 17 16 16 16 16 16 16 16 16 16 16 16 16 16
18 18 18 18 18 18 18 18 18 18 18 18 18 18 17 18 17 17 17 17 17 17 17 17 17 17 17 17 17 16 16 16 16 16 16 16 16 16 16 16 16 16 15
18 18 18 18 18 18 18 18 18 18 18 18 18 17 17 17 17 17 17 17 17 17 17 17 17 17 17 16 16 16 16 16 16 16 16 16 16 16 16 16 16 16 16
18 18 18 18 18 18 18 18 18 18 18 18 18 17 17 17 17 17 17 17 17 17 17 17 17 17 16 16 16 16 16 16 16 16 16 16 16 16 16 16 16 16 16
18 18 18 18 18 18 18 18 18 18 18 18 17 17 17 17 17 17 17 17 17 17 17 17 17 16 16 16 16 16 16 16 16 16 16 16 16 16 16 15 15 15 15
18 18 18 18 18 18 18 18 18 18 17 17 17 17 17 17 17 17 17 17 17 17 17 17 17 16 16 16 16 16 16 16 16 16 16 15 15 15 15 15 15 15 15
18 18 18 18 18 18 18 18 18 18 17 17 17 17 17 17 17 17 17 17 17 17 17 17 17 17 16 16 16 16 16 16 16 16 15 15 15 15 15 15 15 15 15
18 18 18 18 18 18 18 18 18 17 17 17 17 17 17 18 18 17 17 17 17 17 17 17 17 17 17 16 16 16 16 16 16 15 15 15 15 15 15 15 15 15 15
18 18 18 18 18 18 18 17 17 17 17 17 17 17 18 18 18 17 17 17 17 17 17 17 17 17 17 17 16 16 16 16 16 15 15 15 15 15 15 15 15 15 15
18 17 17 17 18 18 18 17 17 17 17 17 17 17 17 17 17 17 17 17 17 17 17 17 17 17 17 17 16 16 16 16 16 16 15 15 15 15 15 15 15 15 15
17 17 17 17 18 18 18 17 17 17 17 17 17 17 17 17 17 17 18 18 17 17 17 17 17 17 17 17 17 16 16 16 16 16 15 15 15 15 15 15 15 15 15
17 17 17 17 18 17 17 17 17 17 17 17 17 17 17 17 17 17 18 18 17 17 17 17 17 17 17 17 17 16 16 16 16 16 15 15 15 15 15 15 15 15 15
18 18 17 17 17 17 17 17 17 17 17 17 17 17 17 17 17 17 17 17 17 17 17 17 17 17 17 17 17 16 16 16 16 16 15 15 15 15 15 15 15 15 15
17 17 17 17 17 17 17 17 17 17 17 17 17 17 17 17 17 17 17 17 17 17 17 17 17 17 17 17 17 16 16 16 16 16 15 15 15 15 15 15 15 15 14
17 17 17 17 17 17 17 17 17 17 17 17 17 17 17 17 17 17 17 17 17 17 17 17 17 17 17 17 17 16 16 16 16 16 15 15 15 15 15 15 14 14 14
17 17 17 17 17 17 17 17 17 17 17 17 17 17 17 17 17 17 17 17 17 17 17 17 17 17 17 17 16 16 16 16 16 16 15 15 15 15 15 15 14 14 14
17 17 17 17 17 17 17 17 17 17 17 17 17 17 17 17 16 16 16 16 16 16 16 16 17 16 16 16 16 16 16 16 16 15 15 15 15 15 15 15 14 14 14
17 17 17 17 17 17 17 17 17 16 16 16 16 16 16 16 16 16 16 16 16 16 16 16 16 16 16 16 16 16 16 15 15 15 15 15 15 15 15 15 15 14 14
17 17 17 17 17 17 17 17 16 16 16 16 16 16 16 16 16 16 16 16 16 16 16 16 16 16 16 15 15 15 15 15 15 15 15 15 15 15 15 14 14 14 14
17 17 17 17 17 16 16 16 16 16 16 16 16 16 16 16 16 16 15 15 15 15 15 15 15 15 15 15 15 15 15 15 15 15 15 15 15 15 14 14 14 14 14
17 17 17 17 16 16 16 16 16 16 16 16 16 15 15 15 15 15 15 15 15 15 15 15 15 15 15 14 14 14 14 14 14 14 14 14 14 14 14 14 14 14 14
16 16 16 16 16 16 16 16 16 16 15 15 15 15 15 15 15 15 15 15 14 14 14 14 14 14 14 14 14 14 13 13 13 13 13 13 14 13 13 13 13 13 13
16 16 16 16 16 16 16 15 15 15 15 15 15 15 15 15 14 14 14 14 14 14 14 14 14 14 13 13 13 13 13 13 13 13 12 12 13 13 13 13 13 13 12
16 16 16 16 15 15 15 15 15 15 15 15 14 14 14 14 14 14 14 14 14 14 13 13 13 13 13 13 12 12 12 12 12 12 12 12 12 12 12 12 12 12 12
16 15 15 15 15 15 15 15 15 15 14 14 14 14 14 14 13 13 13 13 13 13 13 13 12 12 12 12 12 11 11 11 11 11 11 11 11 11 11 11 11 11 11
Wind_Speed
6 6 6 7 8 7 6 5 4 3 3 3 6 8 9 10 12 12 12 15 15 15 14 13 13 12 12 12 11 11 11 10 10 10 10 10 10 10 9 9 9 9 8
8 6 5 5 6 7 8 7 5 3 3 3 4 6 9 10 11 12 12 14 16 16 15 14 13 12 12 12 12 12 11 11 10 10 10 10 10 10 10 9 9 9 9
12 8 5 5 6 8 7 5 4 3 3 3 3 4 7 9 10 11 13 13 13 15 15 14 14 13 13 13 12 12 12 11 11 11 11 11 11 10 10 10 10 10 10
14 9 6 5 7 7 5 4 3 3 2 2 2 3 4 6 9 11 12 12 12 12 14 14 14 14 13 13 12 12 12 12 11 11 11 11 11 11 11 11 11 11 11
13 9 6 5 7 5 4 4 3 3 3 2 2 2 3 3 5 8 8 11 12 13 13 14 15 15 14 13 13 12 12 12 12 11 11 11 11 12 12 12 12 12 12
12 9 5 6 6 4 4 3 4 3 3 3 2 2 1 2 3 4 6 9 11 13 14 13 13 14 15 15 14 13 12 12 12 11 11 11 11 12 12 13 13 13 13
11 8 5 5 5 5 5 5 4 3 2 2 3 2 2 1 2 3 4 5 7 11 13 14 14 13 12 15 15 14 13 13 13 12 12 12 12 12 12 13 13 14 14
11 9 6 6 6 5 5 5 4 3 1 2 3 3 2 3 2 1 2 5 5 7 9 12 13 14 13 12 14 15 14 13 13 13 13 13 13 13 13 13 14 14 15
10 8 8 6 6 6 6 5 5 5 3 1 2 4 4 3 2 2 2 3 4 4 5 9 12 14 14 13 13 15 16 15 14 13 12 12 12 13 14 14 14 14 15
9 9 8 7 6 6 6 6 5 4 4 2 1 1 3 4 3 1 3 2 3 5 5 6 8 12 14 14 15 15 16 16 15 14 13 12 12 12 13 13 13 14 15
7 8 8 7 6 6 6 6 5 5 4 4 3 2 1 1 2 3 2 3 2 3 5 5 6 10 14 15 14 15 16 17 17 15 14 13 12 12 12 12 13 13 13
5 7 8 7 6 6 6 6 6 6 4 4 3 3 3 3 3 3 3 3 3 3 3 4 5 7 11 14 15 16 17 17 17 16 15 13 13 12 11 11 11 12 12
5 8 8 7 7 6 6 5 6 5 5 5 4 3 3 3 3 4 3 2 2 3 2 3 4 7 10 13 14 17 17 17 17 16 15 14 14 13 12 12 12 11 12
8 8 8 8 8 7 7 6 5 5 5 5 5 4 2 2 3 3 4 4 1 1 2 4 2 5 9 12 15 16 15 18 18 17 17 16 16 15 15 14 14 13 13
7 9 9 9 8 8 8 7 5 5 5 5 5 4 3 2 2 2 3 4 5 3 3 4 3 3 7 10 14 15 15 17 19 19 18 18 18 17 17 17 16 16 16
8 9 9 9 9 8 8 7 5 5 6 5 4 5 4 2 2 2 2 3 4 5 4 4 4 3 4 7 12 14 15 17 19 20 20 20 19 19 19 19 19 19 18
8 9 10 9 9 9 8 8 7 7 7 6 5 6 5 4 3 2 2 2 2 3 4 4 3 2 2 3 4 9 12 12 14 17 19 20 20 20 20 20 20 20 20
8 9 9 9 9 9 8 9 9 8 8 8 7 6 6 4 4 3 3 3 2 3 4 4 3 2 3 4 3 4 7 10 12 15 18 20 21 22 22 22 22 21 21
8 8 9 9 8 8 8 8 8 7 8 8 7 7 7 5 5 4 4 3 3 2 3 3 3 2 2 2 2 4 4 5 9 12 15 18 20 21 21 22 22 23 22
8 8 7 8 7 7 7 7 7 6 6 6 6 7 6 7 7 6 5 4 3 2 2 2 3 3 3 3 2 3 4 4 5 7 10 12 13 16 18 19 20 21 22
7 6 6 5 5 5 5 6 7 6 5 5 4 5 6 7 8 7 5 5 4 3 3 3 3 3 3 2 3 3 4 4 5 4 4 5 5 6 10 13 15 18 20
5 6 5 5 4 4 5 7 7 5 5 5 5 4 4 5 6 7 7 7 6 5 5 4 4 5 5 4 4 4 4 3 4 3 2 5 3 5 5 9 12 14 16
5 5 5 5 4 3 4 5 7 5 4 4 4 4 3 3 4 4 5 6 7 8 8 6 6 7 6 6 4 5 5 5 6 4 2 5 4 5 6 10 12 14 15
5 5 5 5 4 2 3 4 5 4 3 2 3 3 3 2 2 3 3 3 3 4 6 6 7 8 7 6 6 6 6 5 5 4 3 5 4 5 6 7 12 13 14
4 4 4 5 4 2 2 3 4 3 2 1 1 1 2 1 1 2 2 2 4 5 5 6 7 8 10 10 6 3 3 3 5 5 3 4 4 4 4 6 9 11 12
4 5 5 4 4 3 3 4 5 3 2 1 1 1 0 1 1 0 1 2 4 5 4 4 4 6 6 7 7 6 5 5 4 4 3 3 4 2 4 4 4 6 9
Wind_Direction
167 169 176 180 184 183 187 193 200 195 185 170 159 153 162 163 164 172 180 182 179 179 178 177 178 179 178 177 178 178 178 177 176 175 175 174 175 175 176 175 173 173 172
169 169 174 183 189 190 190 189 187 174 167 151 147 153 159 164 172 178 181 186 185 184 183 182 183 184 185 186 187 187 187 186 185 186 186 187 186 188 189 189 189 187 186
171 169 173 181 188 186 178 169 164 157 154 142 143 150 158 167 174 179 183 186 189 192 190 189 189 191 192 193 194 195 194 193 192 194 196 198 198 200 200 201 201 200 200
171 168 172 182 182 171 160 153 147 145 148 139 150 159 160 170 175 183 187 188 189 195 199 198 197 197 199 200 200 201 201 199 198 200 202 204 207 208 209 210 210 210 210
169 167 170 177 170 156 156 168 146 147 148 157 169 162 163 168 178 183 188 193 196 198 200 205 206 204 206 206 205 205 203 204 206 207 209 212 215 215 216 217 216 217 218
169 162 164 168 157 147 154 153 146 144 147 161 143 126 155 180 183 183 190 195 202 205 205 206 209 211 214 213 213 211 209 208 210 212 213 217 220 220 221 223 222 222 223
167 159 165 163 155 158 165 157 142 137 133 130 93 47 3 354 199 199 190 189 202 208 205 207 208 209 214 219 220 217 215 214 213 215 216 220 223 225 225 227 228 228 229
169 171 166 170 164 156 155 156 142 133 133 138 130 106 35 351 325 232 207 199 202 198 200 206 206 209 212 214 220 222 223 222 220 220 223 225 226 228 229 229 232 233 234
171 168 172 168 166 163 167 168 155 144 155 165 146 142 147 209 278 313 258 214 195 192 201 203 208 212 215 216 220 225 226 226 225 225 226 228 231 232 233 232 235 235 237
172 172 172 170 167 164 165 173 163 150 144 158 157 177 168 157 152 254 311 274 222 206 205 204 207 213 216 216 219 221 223 224 225 226 228 230 232 235 237 237 239 240 240
174 176 173 168 165 162 167 168 155 154 152 157 164 162 128 119 130 147 221 277 283 244 219 211 203 208 211 211 214 220 222 222 224 226 229 232 234 238 241 244 246 245 246
180 177 174 170 169 167 167 171 168 164 164 158 156 157 157 162 183 166 191 225 241 263 243 225 207 207 210 210 214 218 220 221 223 226 228 231 234 238 241 245 247 248 250
187 189 183 177 177 177 173 168 168 172 171 169 173 177 177 188 176 163 162 193 230 275 285 254 229 214 211 210 214 217 218 218 221 223 226 229 232 235 239 242 246 248 252
190 185 183 182 182 179 178 173 173 180 177 180 185 178 180 198 178 170 166 157 164 299 297 267 265 221 213 208 213 214 217 220 222 225 227 230 233 236 238 241 245 247 250
190 185 183 184 185 182 179 174 180 187 179 187 189 188 191 207 191 185 172 163 160 193 253 266 259 238 217 212 214 211 216 222 224 227 230 233 236 239 240 242 244 246 247
191 180 182 184 185 186 183 179 182 190 186 196 194 192 200 208 200 187 180 175 169 173 215 250 244 243 214 214 217 212 219 224 226 230 234 237 240 243 245 246 247 248 249
186 183 184 185 188 189 186 185 193 191 194 203 203 197 210 204 198 198 177 168 175 166 199 259 259 263 210 217 210 220 229 230 235 238 241 244 246 247 249 250 251 251 252
187 185 184 187 192 191 187 188 198 198 198 205 210 206 217 209 204 207 192 189 192 186 184 234 268 262 234 228 219 222 231 234 238 245 247 250 252 253 253 254 254 254 255
182 183 182 187 189 186 185 191 195 199 202 207 208 207 215 203 213 215 206 205 210 202 181 201 247 259 264 259 245 253 249 248 249 252 253 253 254 255 256 257 258 258 258
179 178 181 183 182 181 185 192 192 198 208 213 210 207 207 202 211 212 213 214 211 207 198 206 242 257 261 264 229 249 269 261 261 264 261 260 260 262 262 262 263 262 263
169 161 160 164 169 175 193 197 194 194 201 213 213 209 209 209 209 209 211 210 202 206 216 228 246 257 259 257 245 238 249 266 268 255 264 269 271 272 275 272 267 265 264
146 144 151 156 166 189 199 194 188 183 192 203 214 220 218 217 220 216 214 206 197 206 221 228 239 242 251 244 243 241 244 257 272 259 242 269 249 262 268 270 271 272 270
148 149 155 155 169 182 176 178 185 181 191 199 210 220 231 230 218 225 230 230 228 227 217 214 231 241 244 238 234 244 238 236 245 246 224 265 263 263 266 270 270 271 271
151 159 158 162 160 167 167 171 173 167 166 184 198 199 204 236 243 216 221 233 248 253 243 231 234 245 247 242 231 238 244 250 259 257 208 248 261 259 267 269 272 271 272
142 146 141 139 137 121 132 160 153 133 138 167 184 167 172 186 254 206 202 250 276 282 277 261 256 263 265 264 249 238 246 252 271 270 221 225 255 268 272 271 273 273 278
141 133 119 115 120 107 87 117 140 127 131 136 62 33 104 159 309 330 200 236 269 280 301 313 303 298 287 281 264 236 235 244 258 271 246 221 252 262 283 272 268 280 286
Height
1550 1552 1554 1556 1558 1560 1561 1563 1564 1566 1567 1567 1568 1569 1570 1571 1572 1572 1573 1574 1574 1575 1576 1576 1577 1577 1578 1579 1579 1580 1581 1581 1582 1583 1583 1584 1584 1585 1585 1586 1586 1587 1587
1550 1552 1554 1556 1558 1559 1561 1563 1564 1565 1566 1567 1568 1569 1570 1571 1572 1572 1573 1574 1575 1575 1576 1576 1577 1577 1578 1578 1579 1580 1581 1581 1582 1582 1583 1584 1584 1585 1586 1586 1587 1587 1587
1550 1552 1553 1555 1557 1559 1560 1562 1564 1565 1566 1567 1568 1569 1570 1571 1571 1572 1573 1574 1574 1575 1576 1576 1577 1577 1577 1578 1579 1580 1580 1581 1581 1582 1583 1583 1584 1585 1585 1586 1586 1587 1587
1549 1551 1552 1554 1556 1558 1559 1561 1563 1564 1565 1566 1567 1568 1569 1570 1571 1572 1573 1573 1574 1574 1575 1576 1576 1576 1577 1578 1578 1579 1579 1580 1581 1581 1582 1583 1583 1584 1585 1585 1586 1586 1586
1547 1549 1551 1553 1555 1556 1558 1560 1561 1563 1564 1565 1566 1567 1568 1569 1570 1571 1572 1573 1573 1574 1574 1575 1575 1576 1576 1577 1577 1578 1578 1579 1580 1580 1581 1582 1582 1583 1583 1584 1584 1585 1585
1545 1547 1550 1552 1553 1555 1557 1558 1560 1562 1563 1564 1565 1567 1567 1568 1569 1570 1571 1572 1572 1573 1574 1574 1575 1575 1575 1576 1576 1576 1577 1578 1578 1579 1579 1580 1580 1581 1582 1582 1583 1583 1583
1543 1545 1548 1550 1552 1553 1555 1557 1559 1560 1562 1563 1564 1566 1567 1567 1568 1569 1569 1570 1571 1572 1572 1573 1574 1574 1574 1575 1575 1575 1576 1576 1576 1577 1577 1578 1578 1579 1579 1580 1580 1581 1581
1540 1543 1546 1548 1550 1552 1554 1555 1557 1559 1560 1562 1563 1564 1565 1567 1566 1567 1568 1569 1569 1570 1571 1571 1572 1573 1573 1573 1574 1574 1574 1575 1575 1575 1575 1576 1576 1576 1576 1577 1577 1578 1578
1538 1540 1543 1545 1548 1550 1551 1553 1555 1557 1558 1560 1561 1563 1563 1564 1565 1566 1566 1567 1568 1568 1569 1570 1571 1571 1572 1572 1572 1572 1573 1573 1573 1573 1573 1573 1573 1573 1574 1574 1574 1575 1575
1535 1538 1540 1543 1545 1547 1549 1551 1553 1555 1557 1558 1560 1561 1562 1562 1563 1564 1565 1565 1566 1567 1567 1568 1569 1569 1570 1570 1571 1571 1571 1571 1571 1571 1571 1571 1571 1571 1571 1571 1571 1571 1571
1532 1535 1538 1540 1543 1545 1547 1549 1551 1553 1555 1557 1558 1559 1560 1561 1561 1562 1562 1564 1564 1565 1565 1566 1567 1567 1568 1568 1569 1569 1569 1569 1569 1569 1569 1568 1568 1568 1568 1568 1568 1568 1568
1529 1532 1536 1538 1540 1543 1545 1547 1549 1551 1553 1555 1556 1557 1558 1559 1559 1560 1561 1561 1562 1563 1563 1564 1565 1565 1566 1566 1567 1567 1567 1567 1567 1567 1566 1566 1566 1565 1565 1565 1564 1564 1564
1526 1529 1533 1535 1538 1540 1542 1545 1547 1549 1550 1552 1554 1555 1556 1557 1558 1559 1559 1559 1560 1561 1561 1562 1563 1563 1564 1564 1565 1565 1565 1565 1565 1564 1564 1563 1563 1562 1562 1562 1561 1561 1561
1523 1527 1530 1533 1535 1538 1540 1542 1544 1546 1548 1550 1552 1553 1554 1555 1556 1557 1558 1558 1558 1559 1559 1560 1560 1561 1561 1562 1562 1563 1563 1563 1562 1562 1561 1561 1560 1560 1559 1559 1558 1558 1557
1521 1524 1527 1530 1533 1535 1537 1539 1541 1543 1545 1547 1549 1550 1552 1553 1554 1555 1556 1556 1557 1556 1557 1557 1558 1558 1559 1559 1560 1560 1560 1560 1559 1559 1558 1558 1557 1556 1556 1555 1555 1554 1554
1518 1521 1524 1527 1530 1532 1534 1536 1539 1541 1542 1544 1546 1547 1549 1550 1551 1552 1553 1554 1554 1555 1554 1554 1555 1555 1556 1556 1557 1557 1557 1556 1556 1556 1555 1554 1554 1553 1553 1552 1551 1551 1550
1515 1518 1521 1524 1527 1529 1531 1533 1535 1538 1539 1541 1543 1544 1545 1547 1548 1549 1550 1551 1551 1551 1551 1551 1552 1552 1552 1553 1553 1553 1553 1552 1552 1552 1551 1551 1550 1549 1549 1548 1548 1547 1546
1512 1515 1518 1521 1523 1525 1528 1530 1532 1534 1536 1538 1539 1541 1542 1543 1544 1546 1547 1547 1548 1548 1548 1548 1548 1548 1549 1549 1549 1549 1548 1548 1548 1547 1547 1546 1546 1545 1544 1543 1543 1542 1541
1509 1512 1515 1517 1520 1522 1524 1526 1528 1531 1532 1534 1536 1537 1539 1540 1541 1542 1543 1543 1544 1544 1544 1544 1544 1545 1545 1545 1544 1544 1544 1543 1543 1542 1542 1541 1540 1539 1539 1538 1537 1537 1536
1506 1509 1512 1514 1517 1519 1521 1523 1525 1527 1529 1531 1532 1534 1535 1536 1537 1538 1539 1539 1540 1540 1540 1540 1540 1540 1540 1540 1540 1539 1538 1538 1538 1537 1536 1535 1534 1534 1533 1532 1532 1531 1530
1503 1506 1509 1511 1514 1516 1518 1519 1521 1523 1525 1527 1528 1530 1531 1532 1533 1534 1535 1535 1536 1536 1536 1536 1535 1535 1535 1535 1534 1534 1533 1532 1531 1531 1530 1529 1529 1528 1527 1526 1525 1524 1523
1501 1504 1506 1509 1511 1513 1514 1516 1517 1519 1521 1523 1525 1526 1527 1528 1529 1530 1530 1531 1531 1531 1531 1531 1530 1530 1529 1529 1529 1529 1527 1526 1524 1525 1524 1523 1522 1521 1520 1520 1519 1518 1517
1500 1502 1504 1507 1508 1510 1512 1513 1514 1515 1518 1520 1522 1523 1524 1524 1525 1525 1526 1526 1526 1526 1527 1526 1525 1525 1524 1524 1523 1523 1522 1520 1518 1518 1517 1515 1515 1513 1513 1512 1512 1510 1509
1498 1500 1502 1505 1507 1508 1510 1512 1513 1514 1516 1517 1518 1519 1520 1520 1521 1521 1522 1521 1521 1521 1521 1521 1520 1519 1519 1518 1517 1516 1515 1513 1512 1511 1510 1508 1507 1506 1505 1505 1504 1503 1502
1497 1499 1501 1503 1505 1507 1508 1510 1512 1513 1513 1514 1515 1516 1516 1517 1517 1517 1517 1516 1516 1516 1516 1515 1514 1513 1512 1512 1511 1510 1508 1507 1504 1504 1504 1501 1499 1498 1497 1497 1496 1495 1494
1497 1498 1500 1502 1504 1505 1506 1508 1509 1510 1511 1511 1512 1512 1513 1513 1513 1513 1513 1512 1511 1511 1510 1509 1508 1508 1506 1505 1505 1503 1502 1501 1498 1497 1496 1495 1493 1492 1489 1488 1488 1487 1486